WESTFORD NEEDLES, 702

Orbit data source: Space-Track

WESTFORD NEEDLES, 702 is space debris in LEO originally from a launch on Thu, 09 May 1963 UTC launched from the Air Force Western Test Range (AFWTR). Debris objects in space refer to the collection of defunct objects orbiting the Earth. Examples of debris include non-operational satellites, rocket bodies, and fragments generated from explosions, collisions, or faulty payload assembly.

Loading next visibility...
Identifier
702, 1963-014H
Orbit
LEO
Country
Flag of USUS
Related business
Manufacturer
Unknown
Mission
Spacecraft
Bus & Motor
Unknown
Mass
Unknown
Launch date (UTC)
1963-05-09 (62 years ago)
Launch vehicle
Unknown
Launch site
Air Force Western Test Range (AFWTR)
Object type
Payload
Rocket body
Debris
Shape & HBR
Unknown shape, 0.9 m
Radar Cross Section
Medium (>0.1 m² and <1 m²)

Expand to show TLE details & history
Last TLE update: 1 day ago

TLE from 1 day ago
0 WESTFORD NEEDLES
1 00702U 63014H   25285.76304182 -.00000035  00000-0 -17518-1 0  9999
2 00702  87.3521 213.1894 0122852 295.1828  63.6330  8.65659073972862
Epoch: 2025-10-12T18:18Z
TLE epoch observation values (Epoch: 2025-10-12T18:18:46.813Z)
Latitude
-0.00002°
Longitude
-83.08117°
Altitude
3,589.9 km
Speed
6.341 km/s
True Right ascension
14h 12m 45s
True Declination
0° 00' 00"
Sunlit
Object was in daylight at epoch
Visualization orbit readout
Latitude
Unknown
Longitude
Unknown
Altitude
Unknown
Speed
Unknown
Apparent Right ascension
Unknown
Apparent Declination
Unknown
Sunlit
N/A
Visualization observer readout
Local Sidereal Time
21:35:09
Azimuth
Unknown
Elevation
Unknown
Doppler factor
Unknown
Orbital elements
Apogee altitude
3,762.045 km
Perigee altitude
3,515.92 km
Semi-major axis
10,017.119 km
Eccentricity
0.01229
Inclination
87.3521°
RAAN
213.1894°
Arg. of periapsis
295.1828°
True anomaly
64.90288°
Mean anomaly
63.633°
Eccentric anomaly
64.26708°
Mean motion
2.16486 °/min
Orbital period
166.29 mins
BSTAR
-0.017518

Documentation

Showing up to 5 results
|